Location: Newark
(19.4108°N, 99.1922°W)
Time: 16:44:09
(UTC+00:00)

Envisat - Visible Passes

Search period start: 21 January 2020 00:00
Search period end: 31 January 2020 00:00
Orbit: 764 x 766 km, 98.1° (Epoch: 21 January)

Date Brightness Start Highest point End Pass type
(mag) Time Alt. Az. Time Alt. Az. Time Alt. Az.
21 Jan 5.3 01:29:27 10° SSW 01:33:40 27° W 01:37:55 10° NW visible
21 Jan 6.0 12:11:40 10° NE 12:15:13 19° E 12:18:47 10° SE visible
22 Jan 3.3 00:51:50 10° S 00:56:53 73° WSW 01:01:57 10° NNW visible
23 Jan 6.2 01:56:54 10° SW 01:59:13 13° W 02:01:33 10° WNW visible
23 Jan 4.7 12:36:03 10° NNE 12:40:45 38° E 12:45:26 10° SSE visible
24 Jan 4.7 01:17:45 10° SSW 01:22:22 36° W 01:26:59 10° NNW visible
24 Jan 6.2 12:01:17 10° ENE 12:03:54 14° E 12:06:31 10° SE visible
25 Jan 3.0 00:40:33 10° SSE 00:45:37 83° ENE 00:50:42 10° N visible
26 Jan 5.9 01:44:32 10° SW 01:47:53 18° W 01:51:16 10° NW visible
26 Jan 5.3 12:25:07 10° NE 12:29:27 28° E 12:33:47 10° SSE visible
27 Jan 4.1 01:06:12 10° S 01:11:04 48° W 01:15:57 10° NNW visible
29 Jan 5.5 01:32:33 10° SSW 01:36:35 24° W 01:40:37 10° NW visible
29 Jan 5.8 12:14:19 10° NE 12:18:08 21° E 12:21:57 10° SSE visible
30 Jan 3.5 00:54:46 10° S 00:59:47 65° WSW 01:04:49 10° NNW visible
